Flag for Germany Weather past 2 weeks in Goch, North Rhine-Westphalia, Germany

Now
59 °F

Passing clouds.


Feels Like: 58 °F
Forecast: 41 / 62 °F
Wind: 8 mph from Northwest

Location: Niederrhein

Current Time: May 26, 2015 at 5:49:02 PM

Latest Report: May 26, 2015 at 5:20 PM


Visibility: N/A

Pressure: 30.18 "Hg

Humidity: 45%

Dew point: 37 °F

Location of GochLocation

Historic Weather in Goch — Graph

°F

Goch temperature yesterday

Maximum temperature yesterday: 63 °F (at 3:20 PM)
Minimum temperature yesterday: 52 °F (at 4:20 AM)
Average temperature yesterday: 56 °F

Past Weeks' High & Low Weather Summary

 TemperatureHumidityPressure
High81 °F (May 11, 4:50 PM)100% (May 21, 4:50 AM)30.33 "Hg (May 21, 4:50 AM)
Low39 °F (May 14, 5:20 AM)30% (May 11, 4:50 PM)29.65 "Hg (May 18, 5:50 PM)
Average56 °F64%30.06 "Hg
* Reported May 11 4:20 PM — May 26 4:50 PM, Goch, Weather by CustomWeather, © 2015

Note: Actual official high and low records may vary slightly from our data, if they occured in-between our weather recording intervals... More about our weather records

Advertising

Goch weather history for previous 24 hours

 ConditionsComfort  
Time TempWeatherWind HumidityBarometerVisibility
4:50 PM
Tue, May 26
59 °FPassing clouds.12 mph45%30.15 "HgN/A
4:20 PM59 °FSunny.9 mph45%30.15 "Hg10 mi
3:50 PM59 °FPartly sunny.12 mph45%30.15 "HgN/A
3:20 PM59 °FBroken clouds.9 mph48%30.15 "HgN/A
2:50 PM59 °FPartly sunny.8 mph48%30.15 "HgN/A
2:20 PM57 °FPartly sunny.13 mph51%30.15 "HgN/A
1:50 PM57 °FScattered clouds.10 mph51%30.15 "HgN/A
1:20 PM57 °FPartly sunny.8 mph55%30.15 "HgN/A
12:50 PM54 °FPartly sunny.3 mph72%30.15 "HgN/A
12:20 PM52 °FSprinkles. Scattered clouds.6 mph72%30.15 "HgN/A
11:50 AM55 °FPartly sunny.9 mph55%30.12 "HgN/A
11:20 AM57 °FScattered clouds.9 mph55%30.12 "HgN/A
10:50 AM55 °FScattered clouds.10 mph59%30.12 "HgN/A
10:20 AM55 °FScattered clouds.8 mph59%30.12 "HgN/A
9:50 AM54 °FScattered clouds.7 mph67%30.12 "HgN/A
9:20 AM54 °FScattered clouds.7 mph67%30.12 "HgN/A
8:50 AM52 °FPassing clouds.6 mph72%30.12 "HgN/A
8:20 AM52 °FSunny.7 mph77%30.12 "Hg10 mi
7:50 AM50 °FSunny.5 mph76%30.09 "Hg10 mi
7:20 AM48 °FClear.3 mph82%30.09 "Hg10 mi
6:50 AM48 °FClear.2 mph82%30.09 "Hg10 mi
6:20 AM48 °FClear.3 mph87%30.09 "Hg10 mi
5:50 AM48 °FClear.3 mph87%30.09 "Hg10 mi
5:20 AM48 °FClear.3 mph82%30.07 "Hg10 mi
4:50 AM48 °FClear.3 mph82%30.07 "Hg10 mi
4:20 AM48 °FClear.2 mph82%30.07 "Hg10 mi
11:50 PM
Mon, May 25
52 °FPassing clouds.5 mph72%30.04 "HgN/A
11:20 PM52 °FPassing clouds.6 mph72%30.04 "HgN/A
10:50 PM54 °FPassing clouds.7 mph67%30.04 "Hg6 mi
10:20 PM54 °FPassing clouds.7 mph67%30.04 "HgN/A
9:50 PM54 °FPassing clouds.7 mph67%30.04 "HgN/A
9:20 PM55 °FPassing clouds.7 mph63%30.01 "HgN/A
8:50 PM55 °FPassing clouds.7 mph63%30.01 "HgN/A
8:20 PM57 °FPassing clouds.6 mph59%30.01 "HgN/A
7:50 PM57 °FPassing clouds.7 mph63%30.01 "HgN/A
7:20 PM59 °FPassing clouds.7 mph55%29.98 "HgN/A
6:50 PM59 °FSunny.6 mph55%29.98 "Hg10 mi
6:20 PM59 °FSunny.5 mph55%29.98 "Hg10 mi
5:50 PM61 °FPassing clouds.5 mph52%29.98 "HgN/A
5:20 PM61 °FSunny.3 mph52%29.98 "Hg10 mi
Weather by CustomWeather, © 2015

See weather overviewHow to use our weather pages